Regional Weather Roundup
Issued by NWS

Home | Current Version | Previous Version | Graphics & Text | Print | Product List | Glossary On
Versions: 1 2 3 4 5 6 7 8 9 10 11 12 13 14 15 16 17 18 19 20 21 22 23 24 25 26 27 28 29 30 31 32 33 34 35 36 37 38 39 40 41 42 43 44 45 46 47 48 49 50
000
ASUS44 KMEG 212010
RWRTN
TENNESSEE HOURLY STATE WEATHER ROUNDUP
NATIONAL WEATHER SERVICE MEMPHIS TN
200 PM CST SAT JAN 21 2017

TNZ002-004-019-021-049-052-054-088>092-212100-
WEST TENNESSEE

CITY           SKY/WX    TMP DP  RH WIND       PRES   REMARKS
MEMPHIS INTL   PTSUNNY   69  52  54 S12       29.58F
NWS MEMPHIS      N/A     69 N/A N/A MISG        N/A
JACKSON        MOSUNNY   70  50  49 SW9       29.59F
DYERSBURG      MOSUNNY   70  50  49 SW7G16    29.59S
UNION CITY     SUNNY     70  46  43 CALM      29.58S
PARIS          SUNNY     70  48  46 CALM      29.59F
HUNTINGDON     SUNNY     70  50  49 S13       29.59S
$$

TNZ008-025-027-028-033-062-065-066-212100-
NORTH MIDDLE TENNESSEE

CITY           SKY/WX    TMP DP  RH WIND       PRES   REMARKS
NASHVILLE      MOSUNNY   69  48  47 SE8       29.63F
PORTLAND       SUNNY     68  48  49 S12       29.63F
CLARKSVILLE    SUNNY     70  49  47 SE15      29.59F
SMYRNA         MOSUNNY   68  51  54 SE8       29.65F
GALLATIN       PTSUNNY   68  50  52 SE7       29.66F
CROSSVILLE     MOSUNNY   58  48  69 E8        29.66F
$$

TNZ061-075-076-078-094-096-097-212100-
SOUTH MIDDLE TENNESSEE

CITY           SKY/WX    TMP DP  RH WIND       PRES   REMARKS
TULLAHOMA      MOSUNNY   64  50  59 S3        29.66S
WINCHESTER     MOSUNNY   63  50  63 CALM      29.65S
MCMINNVILLE    MOSUNNY   63  54  72 E3        29.65F
COLUMBIA       PTSUNNY   66  54  63 S7        29.62F
SHELBYVILLE    SUNNY     66  52  59 VRB3      29.66S
$$

TNZ017-018-042-046-047-212100-
NORTHEAST TENNESSEE

CITY           SKY/WX    TMP DP  RH WIND       PRES   REMARKS
TRI CITIES     CLOUDY    56  50  80 CALM      29.72F
ELIZABETHTON   CLOUDY    57  50  77 CALM      29.73F
$$

TNZ012-013-036-069-073-074-212100-
CENTRAL EAST TENNESSEE

CITY           SKY/WX    TMP DP  RH WIND       PRES   REMARKS
KNOXVILLE      CLOUDY    58  52  80 NE10      29.61F
OAK RIDGE      MOSUNNY   57  52  83 CALM      29.66F
GATLINBURG     SUNNY     54  52  94 N5        29.63F
MORRISTOWN     SUNNY     54  52  94 CALM      29.66F
JACKSBORO      PTSUNNY   57  54  88 NE3       29.69F
$$

TNZ083-085-099-212100-
SOUTHEAST TENNESSEE

CITY           SKY/WX    TMP DP  RH WIND       PRES   REMARKS
CHATTANOOGA    PTSUNNY   64  52  64 N8        29.63F
$$

SKY/WX REPORTED AS FAIR MEANS FEW OR NO CLOUDS BELOW
12 THOUSAND FEET.




USA.gov is the U.S. government's official web portal to all federal, state and local government web resources and services.